Miscellaneous Local Product
Issued by NWS Hastings, NE

Home | Current Version | Previous Version | Text Only | Print | Product List | Glossary Off
Versions: 1 2 3 4 5 6 7 8 9 10 11 12 13 14 15 16 17 18 19 20 21 22 23 24 25 26 27 28 29 30 31 32 33 34 35 36 37 38 39 40 41 42 43 44 45 46 47 48 49 50

000
AXUS43 KGID 301502
MISGRI

GID CWA HOURLY WEATHER ROUNDUP
NATIONAL WEATHER SERVICE HASTINGS NE
1000 AM CDT TUE JUN 30 2015

NOTE: "FAIR" INDICATES FEW OR NO CLOUDS BELOW 12,000 FEET WITH NO
SIGNIFICANT WEATHER AND/OR OBSTRUCTIONS TO VISIBILITY.

...SOUTH CENTRAL NEBRASKA...

CITY           SKY/WX    TMP DP  RH WIND       PRES   REMARKS
GRAND ISLAND   SUNNY     85  62  46 SW9       29.96F
HASTINGS       SUNNY     83  63  50 SW8       29.97F
KEARNEY        MOSUNNY   81  63  54 SW10      29.97F
ORD            SUNNY     79  61  53 VRB3      29.95F
YORK           MOSUNNY   77  64  65 NE7       29.98R
AURORA         MOSUNNY   82  64  54 W8        29.96F
LEXINGTON      MOSUNNY   81  63  54 S7        29.99S
HOLDREGE       PTSUNNY   77  59  53 S7        29.99F
HEBRON         SUNNY     80  61  52 W3        29.96S

...NEBRASKA PANHANDLE...

CITY           SKY/WX    TMP DP  RH WIND       PRES   REMARKS
CHADRON        PTSUNNY   75  60  59 CALM      29.99S
ALLIANCE       PTSUNNY   74  61  63 SW5       30.04S
SCOTTSBLUFF    MOSUNNY   74  57  55 W8        30.05F
SIDNEY         SUNNY     79  58  48 W7        30.09S

...WESTERN AND NORTH CENTRAL NEBRASKA...

CITY           SKY/WX    TMP DP  RH WIND       PRES   REMARKS
VALENTINE        N/A     78  60  53 SE12      29.96F
AINSWORTH      MOSUNNY   76  61  61 SE10      29.97F
ONEILL         CLOUDY    75  63  67 E8        29.97S
BROKEN BOW     MOSUNNY   82  64  54 SW6       29.97F
IMPERIAL       SUNNY     80  60  50 SW3       30.04S
NORTH PLATTE   SUNNY     77  63  61 S3        30.00F
MCCOOK         SUNNY     78  61  55 SW5       30.01S

...EASTERN NEBRASKA...

CITY           SKY/WX    TMP DP  RH WIND       PRES   REMARKS
NORFOLK        CLOUDY    74  66  76 SE6       29.94F HAZE
SO SIOUX CITY  CLOUDY    71  64  78 CALM      29.94F HAZE
TEKAMAH        CLOUDY    74  65  73 W3        29.93F HAZE
COLUMBUS       CLOUDY    73  63  68 S3        29.99R
ALBION         CLOUDY    72  63  73 CALM      29.97F
OMAHA EPPLEY   CLOUDY    75  65  70 CALM      29.94F HAZE
OFFUTT AFB     CLOUDY    74  64  69 SW3       29.94F
MILLARD        CLOUDY    74  64  73 CALM      29.94F
LINCOLN        PTSUNNY   79  65  62 CALM      29.97F HAZE
NEBRASKA CITY  MOSUNNY   79  58  49 NW9       29.96S
BEATRICE       MOSUNNY   78  66  68 CALM      29.97R
FALLS CITY     SUNNY     78  67  68 NW6       29.95S

...NORTHERN KANSAS...

CITY           SKY/WX    TMP DP  RH WIND       PRES   REMARKS
GOODLAND       SUNNY     85  55  35 SW6       30.08S
HILL CITY      MOSUNNY   83  57  41 VRB3      30.01F
NORTON         SUNNY     82  52  34 S7        30.00S
PHILLIPSBURG   SUNNY     86  55  35 SW7       29.99F
SMITH CENTER   SUNNY     84  57  39 SW8       29.99S
HAYS           FAIR      88  57  35 W10       30.01S
RUSSELL        SUNNY     84  58  40 SW8       29.99S
CONCORDIA      PTSUNNY   84  64  50 SW8       29.97S
SALINA         MOSUNNY   88  63  43 S5        29.98S
TOPEKA         SUNNY     77  64  64 W5        29.96S



USA.gov is the U.S. government's official web portal to all federal, state and local government web resources and services.